Preview of NWS' New Version of Forecast
This preview is not operational and should not be used for support decisions.

Regional Weather Roundup (RWR)

Issued by National Weather Service (NWS)

                            
000
ASUS43 KBIS 190710
RWRND 

NORTH DAKOTA REGIONAL WEATHER ROUNDUP
NATIONAL WEATHER SERVICE BISMARCK ND
100 AM CST TUE FEB 19 2019

NOTE: "FAIR" INDICATES FEW OR NO CLOUDS BELOW 12,000 FEET WITH NO
SIGNIFICANT WEATHER AND/OR OBSTRUCTIONS TO VISIBILITY.


NDZ001>003-009>011-017-190800-
NORTHWEST NORTH DAKOTA
  
CITY           SKY/WX    TMP DP  RH WIND       PRES   REMARKS
WILLISTON      CLEAR    -11 -16  78 SW6       30.33F WCI -25          
MINOT          CLOUDY    -6 -10  83 SW8       30.35F WCI -21          
MINOT AFB      CLOUDY   -10 -16  77 SW9       30.34F WCI -28          
$$
 
NDZ018>021-031>035-040>046-190800-
SOUTHWEST NORTH DAKOTA
  
CITY           SKY/WX    TMP DP  RH WIND       PRES   REMARKS
BISMARCK       CLEAR    -13 -18  78 CALM      30.42F                  
DICKINSON      CLEAR    -11 -16  78 CALM      30.27F                  
GARRISON         N/A     -9 -14  78 CALM      30.35F                  
HETTINGER ARPT MOCLDY   -21 -26  77 CALM      30.31F                  
$$
 
NDZ004>008-012>016-024-026-027-054-190800-
NORTHEAST NORTH DAKOTA
  
CITY           SKY/WX    TMP DP  RH WIND       PRES   REMARKS
GRAND FORKS    CLEAR    -10 -14  82 S7        30.51F WCI -25          
GRND FRKS AFB  CLEAR     -8 -13  77 S6        30.50F WCI -21          
DEVILS LAKE    CLEAR    -11 -14  86 CALM      30.42F                  
$$
 
NDZ022-023-025-028>030-036>039-047>053-190800-
SOUTHEAST NORTH DAKOTA
  
CITY           SKY/WX    TMP DP  RH WIND       PRES   REMARKS
FARGO          CLEAR     -7 -10  87 S5        30.53S WCI -18          
JAMESTOWN      CLOUDY    -9 -13  83 SW3       30.43F                  
$$